Time,TemperatureF,DewpointF,PressureIn,WindDirection,WindDirectionDegrees,WindSpeedMPH,WindSpeedGustMPH,Humidity,HourlyPrecipIn,Conditions,Clouds,dailyrainin,SoftwareType,DateUTC
2013-02-09 00:00:00,38.3,26.8,30.19,NW,315,5.0,5.0,63,0.00,RA,,0.00,WeatherDisplay:10.37,2013-02-09 05:00:00,
2013-02-09 00:10:00,38.3,26.8,30.20,NW,315,5.0,5.0,63,0.00,CLR,,0.00,WeatherDisplay:10.37,2013-02-09 05:10:00,
2013-02-09 00:20:00,37.9,26.5,30.19,NW,315,5.0,5.0,63,0.00,CLR,,0.00,WeatherDisplay:10.37,2013-02-09 05:20:00,
2013-02-09 00:30:00,37.6,26.5,30.19,NW,315,5.0,5.0,64,0.00,CLR,,0.00,WeatherDisplay:10.37,2013-02-09 05:30:00,
2013-02-09 00:40:00,37.4,26.3,30.20,NW,315,5.0,5.0,64,0.00,CLR,,0.00,WeatherDisplay:10.37,2013-02-09 05:40:00,
2013-02-09 00:50:00,37.0,26.4,30.20,NW,315,5.0,5.0,65,0.00,CLR,,0.00,WeatherDisplay:10.37,2013-02-09 05:50:00,
2013-02-09 01:00:00,36.9,26.6,30.20,NW,315,5.0,5.0,66,0.00,CLR,,0.00,WeatherDisplay:10.37,2013-02-09 06:00:00,
2013-02-09 01:10:00,36.5,26.2,30.20,NW,315,5.0,5.0,66,0.00,CLR,,0.00,WeatherDisplay:10.37,2013-02-09 06:10:00,
2013-02-09 01:20:00,36.3,26.4,30.20,NW,315,5.0,5.0,67,0.00,CLR,,0.00,WeatherDisplay:10.37,2013-02-09 06:20:00,
2013-02-09 01:30:00,36.0,26.1,30.20,NW,315,5.0,5.0,67,0.00,CLR,,0.00,WeatherDisplay:10.37,2013-02-09 06:30:00,
2013-02-09 01:40:00,35.4,25.5,30.19,NW,315,5.0,5.0,67,0.00,CLR,,0.00,WeatherDisplay:10.37,2013-02-09 06:40:00,
2013-02-09 01:50:00,35.0,25.5,30.20,NW,315,5.0,5.0,68,0.00,CLR,,0.00,WeatherDisplay:10.37,2013-02-09 06:50:00,
2013-02-09 02:00:00,34.8,25.3,30.20,NW,315,5.0,5.0,68,0.00,CLR,,0.00,WeatherDisplay:10.37,2013-02-09 07:00:00,
2013-02-09 02:10:00,34.7,25.6,30.20,NW,315,5.0,5.0,69,0.00,CLR,,0.00,WeatherDisplay:10.37,2013-02-09 07:10:00,
2013-02-09 02:20:00,34.5,25.4,30.20,NW,315,5.0,5.0,69,0.00,CLR,,0.00,WeatherDisplay:10.37,2013-02-09 07:20:00,
2013-02-09 02:30:00,34.5,25.4,30.20,NW,320,3.0,5.0,69,0.00,CLR,,0.00,WeatherDisplay:10.37,2013-02-09 07:30:00,
2013-02-09 02:40:00,34.1,25.3,30.20,NNW,338,3.0,3.0,70,0.00,CLR,,0.00,WeatherDisplay:10.37,2013-02-09 07:40:00,
2013-02-09 02:50:00,33.8,24.7,30.20,NNW,338,3.0,3.0,69,0.00,CLR,,0.00,WeatherDisplay:10.37,2013-02-09 07:50:00,
2013-02-09 03:00:00,33.6,24.9,30.20,NNW,338,3.0,3.0,70,0.00,CLR,,0.00,WeatherDisplay:10.37,2013-02-09 08:00:00,
2013-02-09 03:10:00,33.6,24.9,30.19,NNW,338,3.0,3.0,70,0.00,CLR,,0.00,WeatherDisplay:10.37,2013-02-09 08:10:00,
2013-02-09 03:20:00,33.6,24.9,30.19,NNW,338,3.0,3.0,70,0.00,CLR,,0.00,WeatherDisplay:10.37,2013-02-09 08:20:00,
2013-02-09 03:30:00,33.8,25.0,30.19,NNW,338,3.0,3.0,70,0.00,CLR,,0.00,WeatherDisplay:10.37,2013-02-09 08:30:00,
2013-02-09 03:40:00,34.0,25.2,30.20,NNW,338,3.0,3.0,70,0.00,CLR,,0.00,WeatherDisplay:10.37,2013-02-09 08:40:00,
2013-02-09 03:50:00,33.8,24.7,30.21,NNW,338,3.0,3.0,69,0.00,CLR,,0.00,WeatherDisplay:10.37,2013-02-09 08:50:00,
2013-02-09 04:00:00,34.0,24.9,30.21,NNW,338,3.0,3.0,69,0.00,CLR,,0.00,WeatherDisplay:10.37,2013-02-09 09:00:00,
2013-02-09 04:10:00,33.6,24.9,30.22,NNW,338,3.0,3.0,70,0.00,CLR,,0.00,WeatherDisplay:10.37,2013-02-09 09:10:00,
2013-02-09 04:20:00,33.4,24.7,30.23,NNW,338,3.0,3.0,70,0.00,CLR,,0.00,WeatherDisplay:10.37,2013-02-09 09:20:00,
2013-02-09 04:30:00,33.4,24.4,30.23,NNW,338,3.0,3.0,69,0.00,CLR,,0.00,WeatherDisplay:10.37,2013-02-09 09:30:00,
2013-02-09 04:40:00,33.3,24.2,30.24,NNW,338,3.0,3.0,69,0.00,CLR,,0.00,WeatherDisplay:10.37,2013-02-09 09:40:00,
2013-02-09 04:50:00,33.1,24.0,30.24,NNW,338,3.0,3.0,69,0.00,CLR,,0.00,WeatherDisplay:10.37,2013-02-09 09:50:00,
2013-02-09 05:00:00,32.7,24.0,30.24,NNW,338,3.0,3.0,70,0.00,CLR,,0.00,WeatherDisplay:10.37,2013-02-09 10:00:00,
2013-02-09 05:10:00,32.5,23.8,30.25,NNW,331,0.0,3.0,70,0.00,CLR,,0.00,WeatherDisplay:10.37,2013-02-09 10:10:00,
2013-02-09 05:20:00,32.0,23.3,30.26,West,270,0.0,0.0,70,0.00,CLR,,0.00,WeatherDisplay:10.37,2013-02-09 10:20:00,
2013-02-09 05:30:00,31.8,23.5,30.26,West,270,0.0,0.0,71,0.00,CLR,,0.00,WeatherDisplay:10.37,2013-02-09 10:30:00,
2013-02-09 05:40:00,32.0,24.0,30.27,West,270,0.0,0.0,72,0.00,CLR,,0.00,WeatherDisplay:10.37,2013-02-09 10:40:00,
2013-02-09 05:50:00,32.2,23.8,30.27,West,270,0.0,0.0,71,0.00,CLR,,0.00,WeatherDisplay:10.37,2013-02-09 10:50:00,
2013-02-09 06:00:00,32.2,23.8,30.27,West,270,0.0,0.0,71,0.00,CLR,,0.00,WeatherDisplay:10.37,2013-02-09 11:00:00,
2013-02-09 06:10:00,32.0,23.7,30.28,West,270,0.0,0.0,71,0.00,CLR,,0.00,WeatherDisplay:10.37,2013-02-09 11:10:00,
2013-02-09 06:20:00,31.4,23.1,30.29,West,270,0.0,0.0,71,0.00,CLR,,0.00,WeatherDisplay:10.37,2013-02-09 11:20:00,
2013-02-09 06:30:00,30.6,22.6,30.29,West,270,0.0,0.0,72,0.00,CLR,,0.00,WeatherDisplay:10.37,2013-02-09 11:30:00,
2013-02-09 06:40:00,30.0,22.4,30.30,West,270,0.0,0.0,73,0.00,CLR,,0.00,WeatherDisplay:10.37,2013-02-09 11:40:00,
2013-02-09 06:50:00,29.9,22.6,30.31,West,270,0.0,0.0,74,0.00,CLR,,0.00,WeatherDisplay:10.37,2013-02-09 11:50:00,
2013-02-09 07:00:00,29.5,22.2,30.31,West,270,0.0,0.0,74,0.00,CLR,,0.00,WeatherDisplay:10.37,2013-02-09 12:00:00,
2013-02-09 07:10:00,28.9,22.0,30.32,West,270,0.0,0.0,75,0.00,CLR,,0.00,WeatherDisplay:10.37,2013-02-09 12:10:00,
2013-02-09 07:20:00,28.6,21.7,30.33,West,270,0.0,0.0,75,0.00,CLR,,0.00,WeatherDisplay:10.37,2013-02-09 12:20:00,
2013-02-09 07:30:00,28.6,21.7,30.34,West,270,0.0,0.0,75,0.00,CLR,,0.00,WeatherDisplay:10.37,2013-02-09 12:30:00,
2013-02-09 07:40:00,28.9,22.0,30.34,West,270,0.0,0.0,75,0.00,CLR,,0.00,WeatherDisplay:10.37,2013-02-09 12:40:00,
2013-02-09 08:00:00,29.5,22.8,30.35,WNW,294,0.0,1.0,76,0.00,CLR,,0.00,WeatherDisplay:10.37,2013-02-09 13:00:00,
2013-02-09 08:10:00,30.5,24.2,30.36,West,281,0.0,2.0,77,0.00,CLR,,0.00,WeatherDisplay:10.37,2013-02-09 13:10:00,
2013-02-09 08:40:00,34.8,27.0,30.37,NW,318,1.0,4.0,73,0.00,CLR,,0.00,WeatherDisplay:10.37,2013-02-09 13:40:00,
2013-02-09 08:50:00,36.0,27.5,30.37,WNW,285,3.0,4.0,71,0.00,CLR,,0.00,WeatherDisplay:10.37,2013-02-09 13:50:00,
2013-02-09 09:00:00,37.4,27.4,30.38,NW,313,2.0,3.0,67,0.00,CLR,,0.00,WeatherDisplay:10.37,2013-02-09 14:00:00,
2013-02-09 09:10:00,38.7,27.9,30.38,NW,317,3.0,5.0,65,0.00,CLR,,0.00,WeatherDisplay:10.37,2013-02-09 14:10:00,
2013-02-09 09:20:00,39.7,27.4,30.38,WNW,296,3.0,5.0,61,0.00,CLR,,0.00,WeatherDisplay:10.37,2013-02-09 14:20:00,
2013-02-09 09:30:00,40.3,26.6,30.38,NNW,333,1.0,5.0,58,0.00,CLR,,0.00,WeatherDisplay:10.37,2013-02-09 14:30:00,
2013-02-09 09:40:00,41.4,25.5,30.39,NNW,337,2.0,6.0,53,0.00,CLR,,0.00,WeatherDisplay:10.37,2013-02-09 14:40:00,
2013-02-09 09:50:00,42.1,23.8,30.39,NNW,331,5.0,7.0,48,0.00,CLR,,0.00,WeatherDisplay:10.37,2013-02-09 14:50:00,
2013-02-09 10:00:00,42.4,23.6,30.39,NNW,339,6.0,6.0,47,0.00,CLR,,0.00,WeatherDisplay:10.37,2013-02-09 15:00:00,
2013-02-09 10:10:00,42.9,23.0,30.39,NNW,333,2.0,6.0,45,0.00,CLR,,0.00,WeatherDisplay:10.37,2013-02-09 15:10:00,
2013-02-09 10:20:00,43.7,23.2,30.39,NNW,336,3.0,9.0,44,0.00,CLR,,0.00,WeatherDisplay:10.37,2013-02-09 15:20:00,
2013-02-09 10:30:00,44.8,22.5,30.40,NNW,327,2.0,6.0,41,0.00,CLR,,0.00,WeatherDisplay:10.37,2013-02-09 15:30:00,
2013-02-09 10:40:00,45.7,25.5,30.40,NNW,343,2.0,3.0,45,0.00,CLR,,0.00,WeatherDisplay:10.37,2013-02-09 15:40:00,
2013-02-09 10:50:00,45.9,24.6,30.40,NNW,346,2.0,6.0,43,0.00,CLR,,0.00,WeatherDisplay:10.37,2013-02-09 15:50:00,
2013-02-09 11:00:00,46.2,21.3,30.40,North,351,3.0,7.0,37,0.00,CLR,,0.00,WeatherDisplay:10.37,2013-02-09 16:00:00,
2013-02-09 11:10:00,46.9,24.4,30.41,North,4,2.0,5.0,41,0.00,CLR,,0.00,WeatherDisplay:10.37,2013-02-09 16:10:00,
2013-02-09 11:20:00,47.6,25.6,30.41,NW,311,5.0,6.0,42,0.00,CLR,,0.00,WeatherDisplay:10.37,2013-02-09 16:20:00,
2013-02-09 11:30:00,47.8,24.7,30.41,WNW,295,6.0,6.0,40,0.00,CLR,,0.00,WeatherDisplay:10.37,2013-02-09 16:30:00,
2013-02-09 11:40:00,47.8,23.4,30.41,NNW,335,6.0,6.0,38,0.00,CLR,,0.00,WeatherDisplay:10.37,2013-02-09 16:40:00,
2013-02-09 11:50:00,48.1,22.4,30.41,NW,319,5.0,6.0,36,0.00,CLR,,0.00,WeatherDisplay:10.37,2013-02-09 16:50:00,
2013-02-09 12:00:00,48.5,24.0,30.40,North,350,5.0,6.0,38,0.00,CLR,,0.00,WeatherDisplay:10.37,2013-02-09 17:00:00,
2013-02-09 12:10:00,49.0,23.1,30.41,NW,326,6.0,6.0,36,0.00,CLR,,0.00,WeatherDisplay:10.37,2013-02-09 17:10:00,
2013-02-09 12:20:00,48.6,20.7,30.40,NNW,336,3.0,6.0,33,0.00,CLR,,0.00,WeatherDisplay:10.37,2013-02-09 17:20:00,
2013-02-09 12:30:00,48.4,22.7,30.40,NW,315,3.0,4.0,36,0.00,CLR,,0.00,WeatherDisplay:10.37,2013-02-09 17:30:00,
2013-02-09 12:40:00,49.5,24.2,30.40,NW,315,3.0,4.0,37,0.00,CLR,,0.00,WeatherDisplay:10.37,2013-02-09 17:40:00,
2013-02-09 12:50:00,49.8,23.2,30.39,NW,315,3.0,4.0,35,0.00,CLR,,0.00,WeatherDisplay:10.37,2013-02-09 17:50:00,
2013-02-09 13:00:00,50.2,24.9,30.40,NW,315,3.0,4.0,37,0.00,CLR,,0.00,WeatherDisplay:10.37,2013-02-09 18:00:00,
2013-02-09 13:10:00,50.3,22.9,30.39,NW,315,3.0,4.0,34,0.00,CLR,,0.00,WeatherDisplay:10.37,2013-02-09 18:10:00,
2013-02-09 13:20:00,49.8,21.8,30.39,NW,315,3.0,4.0,33,0.00,CLR,,0.00,WeatherDisplay:10.37,2013-02-09 18:20:00,
2013-02-09 13:30:00,50.2,21.4,30.39,NW,315,3.0,4.0,32,0.00,CLR,,0.00,WeatherDisplay:10.37,2013-02-09 18:30:00,
2013-02-09 13:40:00,50.0,22.0,30.39,NW,315,3.0,4.0,33,0.00,CLR,,0.00,WeatherDisplay:10.37,2013-02-09 18:40:00,
2013-02-09 13:50:00,50.9,23.5,30.39,NW,315,3.0,4.0,34,0.00,CLR,,0.00,WeatherDisplay:10.37,2013-02-09 18:50:00,
2013-02-09 14:00:00,50.7,21.9,30.39,NW,315,3.0,4.0,32,0.00,CLR,,0.00,WeatherDisplay:10.37,2013-02-09 19:00:00,
2013-02-09 14:10:00,50.7,21.1,30.38,NW,315,3.0,4.0,31,0.00,CLR,,0.00,WeatherDisplay:10.37,2013-02-09 19:10:00,
2013-02-09 14:20:00,50.7,21.9,30.38,NW,315,3.0,4.0,32,0.00,CLR,,0.00,WeatherDisplay:10.37,2013-02-09 19:20:00,
2013-02-09 14:30:00,51.0,22.8,30.38,NW,315,3.0,4.0,33,0.00,CLR,,0.00,WeatherDisplay:10.37,2013-02-09 19:30:00,
2013-02-09 14:40:00,50.8,22.0,30.38,NW,315,3.0,4.0,32,0.00,CLR,,0.00,WeatherDisplay:10.37,2013-02-09 19:40:00,
2013-02-09 14:50:00,50.9,21.3,30.37,NW,315,3.0,4.0,31,0.00,CLR,,0.00,WeatherDisplay:10.37,2013-02-09 19:50:00,
2013-02-09 15:00:00,51.1,22.9,30.38,NW,315,3.0,4.0,33,0.00,CLR,,0.00,WeatherDisplay:10.37,2013-02-09 20:00:00,
2013-02-09 15:10:00,51.4,20.2,30.38,NW,315,3.0,4.0,29,0.00,CLR,,0.00,WeatherDisplay:10.37,2013-02-09 20:10:00,
2013-02-09 15:20:00,51.1,19.9,30.37,NW,315,3.0,4.0,29,0.00,CLR,,0.00,WeatherDisplay:10.37,2013-02-09 20:20:00,
2013-02-09 15:30:00,50.7,19.6,30.37,NW,315,3.0,4.0,29,0.00,CLR,,0.00,WeatherDisplay:10.37,2013-02-09 20:30:00,
2013-02-09 15:40:00,50.8,19.6,30.37,NW,315,3.0,4.0,29,0.00,CLR,,0.00,WeatherDisplay:10.37,2013-02-09 20:40:00,
2013-02-09 15:50:00,50.7,21.9,30.38,NW,315,3.0,4.0,32,0.00,CLR,,0.00,WeatherDisplay:10.37,2013-02-09 20:50:00,
2013-02-09 16:00:00,50.7,18.8,30.38,NW,315,3.0,4.0,28,0.00,CLR,,0.00,WeatherDisplay:10.37,2013-02-09 21:00:00,
2013-02-09 16:10:00,51.0,19.8,30.38,NW,315,3.0,4.0,29,0.00,CLR,,0.00,WeatherDisplay:10.37,2013-02-09 21:10:00,
2013-02-09 16:20:00,50.9,21.3,30.38,NW,315,3.0,4.0,31,0.00,CLR,,0.00,WeatherDisplay:10.37,2013-02-09 21:20:00,
2013-02-09 16:30:00,50.9,21.3,30.39,NW,315,3.0,3.0,31,0.00,CLR,,0.00,WeatherDisplay:10.37,2013-02-09 21:30:00,
2013-02-09 16:40:00,50.6,21.0,30.38,NW,315,3.0,3.0,31,0.00,CLR,,0.00,WeatherDisplay:10.37,2013-02-09 21:40:00,
2013-02-09 16:50:00,49.9,19.6,30.38,NW,315,3.0,3.0,30,0.00,CLR,,0.00,WeatherDisplay:10.37,2013-02-09 21:50:00,
2013-02-09 17:00:00,49.8,21.1,30.38,NW,315,3.0,3.0,32,0.00,CLR,,0.00,WeatherDisplay:10.37,2013-02-09 22:00:00,
2013-02-09 17:10:00,49.8,20.3,30.38,NW,315,3.0,3.0,31,0.00,CLR,,0.00,WeatherDisplay:10.37,2013-02-09 22:10:00,
2013-02-09 17:20:00,49.2,20.6,30.38,NW,315,3.0,3.0,32,0.00,CLR,,0.00,WeatherDisplay:10.37,2013-02-09 22:20:00,
2013-02-09 17:30:00,48.9,20.3,30.38,NW,315,3.0,3.0,32,0.00,CLR,,0.00,WeatherDisplay:10.37,2013-02-09 22:30:00,
2013-02-09 17:40:00,48.2,20.4,30.38,NW,315,3.0,3.0,33,0.00,CLR,,0.00,WeatherDisplay:10.37,2013-02-09 22:40:00,
2013-02-09 17:50:00,47.9,20.8,30.39,NW,315,3.0,3.0,34,0.00,CLR,,0.00,WeatherDisplay:10.37,2013-02-09 22:50:00,
2013-02-09 18:00:00,46.0,20.5,30.39,NW,315,3.0,3.0,36,0.00,CLR,,0.00,WeatherDisplay:10.37,2013-02-09 23:00:00,
2013-02-09 18:10:00,43.8,19.1,30.39,NW,315,3.0,3.0,37,0.00,CLR,,0.00,WeatherDisplay:10.37,2013-02-09 23:10:00,
2013-02-09 18:20:00,42.3,19.0,30.39,NW,315,3.0,3.0,39,0.00,CLR,,0.00,WeatherDisplay:10.37,2013-02-09 23:20:00,
2013-02-09 18:30:00,40.5,19.7,30.39,NW,315,3.0,3.0,43,0.00,CLR,,0.00,WeatherDisplay:10.37,2013-02-09 23:30:00,
2013-02-09 18:40:00,39.9,19.7,30.40,NW,315,3.0,3.0,44,0.00,CLR,,0.00,WeatherDisplay:10.37,2013-02-09 23:40:00,
2013-02-09 18:50:00,39.0,19.4,30.40,NW,315,3.0,3.0,45,0.00,CLR,,0.00,WeatherDisplay:10.37,2013-02-09 23:50:00,
2013-02-09 19:00:00,37.9,18.4,30.39,WSW,248,0.0,3.0,45,0.00,CLR,,0.00,WeatherDisplay:10.37,2013-02-10 00:00:00,
2013-02-09 19:10:00,37.2,18.8,30.40,WSW,248,0.0,0.0,47,0.00,CLR,,0.00,WeatherDisplay:10.37,2013-02-10 00:10:00,
2013-02-09 19:20:00,36.9,18.5,30.41,SSW,211,2.0,2.0,47,0.00,CLR,,0.00,WeatherDisplay:10.37,2013-02-10 00:20:00,
2013-02-09 19:30:00,37.0,19.1,30.41,SSW,202,2.0,2.0,48,0.00,CLR,,0.00,WeatherDisplay:10.37,2013-02-10 00:30:00,
2013-02-09 19:40:00,36.5,18.6,30.42,SSW,202,2.0,2.0,48,0.00,CLR,,0.00,WeatherDisplay:10.37,2013-02-10 00:40:00,
2013-02-09 19:50:00,36.0,19.1,30.42,SSW,202,2.0,2.0,50,0.00,CLR,,0.00,WeatherDisplay:10.37,2013-02-10 00:50:00,
2013-02-09 20:00:00,35.7,18.9,30.42,SSW,202,2.0,2.0,50,0.00,CLR,,0.00,WeatherDisplay:10.37,2013-02-10 01:00:00,
2013-02-09 20:10:00,34.9,18.6,30.42,SSW,202,2.0,2.0,51,0.00,CLR,,0.00,WeatherDisplay:10.37,2013-02-10 01:10:00,
2013-02-09 20:20:00,34.3,18.5,30.43,SSW,202,2.0,2.0,52,0.00,CLR,,0.00,WeatherDisplay:10.37,2013-02-10 01:20:00,
2013-02-09 20:30:00,34.2,18.3,30.43,SSW,202,2.0,2.0,52,0.00,CLR,,0.00,WeatherDisplay:10.37,2013-02-10 01:30:00,
2013-02-09 20:40:00,33.9,18.5,30.43,SSW,193,0.0,2.0,53,0.00,CLR,,0.00,WeatherDisplay:10.37,2013-02-10 01:40:00,
2013-02-09 20:50:00,33.4,18.1,30.43,South,180,0.0,0.0,53,0.00,CLR,,0.00,WeatherDisplay:10.37,2013-02-10 01:50:00,
2013-02-09 21:00:00,33.3,18.0,30.43,South,180,0.0,0.0,53,0.00,CLR,,0.00,WeatherDisplay:10.37,2013-02-10 02:00:00,
2013-02-09 21:10:00,33.1,17.8,30.44,South,180,0.0,0.0,53,0.00,CLR,,0.00,WeatherDisplay:10.37,2013-02-10 02:10:00,
2013-02-09 21:20:00,33.3,18.4,30.44,South,174,0.0,1.0,54,0.00,CLR,,0.00,WeatherDisplay:10.37,2013-02-10 02:20:00,
2013-02-09 21:30:00,34.2,19.2,30.44,SE,130,0.0,2.0,54,0.00,CLR,,0.00,WeatherDisplay:10.37,2013-02-10 02:30:00,
2013-02-09 21:40:00,34.5,19.6,30.44,SE,135,1.0,2.0,54,0.00,CLR,,0.00,WeatherDisplay:10.37,2013-02-10 02:40:00,
2013-02-09 21:50:00,35.4,20.0,30.45,SE,145,2.0,3.0,53,0.00,CLR,,0.00,WeatherDisplay:10.37,2013-02-10 02:50:00,
2013-02-09 22:00:00,35.6,19.7,30.45,SE,141,0.0,2.0,52,0.00,CLR,,0.00,WeatherDisplay:10.37,2013-02-10 03:00:00,
2013-02-09 22:10:00,35.6,19.7,30.45,SE,129,2.0,2.0,52,0.00,CLR,,0.00,WeatherDisplay:10.37,2013-02-10 03:10:00,
2013-02-09 22:20:00,35.6,19.7,30.45,SE,135,2.0,2.0,52,0.00,CLR,,0.00,WeatherDisplay:10.37,2013-02-10 03:20:00,
2013-02-09 22:30:00,35.6,19.7,30.45,SE,141,2.0,3.0,52,0.00,CLR,,0.00,WeatherDisplay:10.37,2013-02-10 03:30:00,
2013-02-09 22:40:00,35.6,19.2,30.45,SE,144,1.0,3.0,51,0.00,CLR,,0.00,WeatherDisplay:10.37,2013-02-10 03:40:00,
2013-02-09 22:50:00,34.7,18.9,30.45,SE,135,3.0,3.0,52,0.00,CLR,,0.00,WeatherDisplay:10.37,2013-02-10 03:50:00,
2013-02-09 23:00:00,34.9,19.0,30.44,SE,135,3.0,4.0,52,0.00,CLR,,0.00,WeatherDisplay:10.37,2013-02-10 04:00:00,
2013-02-09 23:10:00,35.1,19.3,30.44,SE,135,3.0,4.0,52,0.00,CLR,,0.00,WeatherDisplay:10.37,2013-02-10 04:10:00,
2013-02-09 23:20:00,35.4,19.1,30.45,SE,135,3.0,4.0,51,0.00,CLR,,0.00,WeatherDisplay:10.37,2013-02-10 04:20:00,
2013-02-09 23:30:00,35.4,19.1,30.45,SE,135,2.0,3.0,51,0.00,CLR,,0.00,WeatherDisplay:10.37,2013-02-10 04:30:00,
2013-02-09 23:40:00,34.9,18.6,30.44,SE,134,1.0,3.0,51,0.00,CLR,,0.00,WeatherDisplay:10.37,2013-02-10 04:40:00,
2013-02-09 23:50:00,34.9,18.6,30.45,SE,134,1.0,2.0,51,0.00,CLR,,0.00,WeatherDisplay:10.37,2013-02-10 04:50:00,